Monistrol de Calders





Hora UTC 06:00
Temperatura 0.1 ºC
Humedad 88.0 %
Presión 1016.2 hPa
Pluja 0.0 mm
Velocidad viento 0.0 km/h
Dirección viento S

Datos diarios 2022-12-01



Hora UTC (invierno +1h; verano +2h)
Temperatura (ºC) Humedad (%) Presión (hPa) Velocidad viento (km/h) Precipitación (mm)
Hora UTC Aire Humedad Presión Vel. Dir. Vel. Max Dir. Intent. máx 5 min.
00:05 2.1 87.0 1016.9 0.0 SSE 0.0 0.0
00:10 2.1 87.0 1016.9 0.0 SSE 8.0 0.0
00:15 1.9 87.0 1016.8 1.6 SSE 1.6 0.0
00:20 1.8 88.0 1016.8 0.0 SSE 1.6 0.0
00:25 1.8 88.0 1016.8 0.0 SSE 1.6 0.0
00:30 1.8 88.0 1016.8 0.0 SSE 0.0 0.0
00:35 1.7 88.0 1016.8 0.0 SSE 0.0 0.0
00:40 1.6 88.0 1016.8 3.2 SSE 4.8 0.0
00:45 1.6 88.0 1016.8 3.2 SE 9.7 0.0
00:50 1.6 88.0 1016.7 4.8 SSE 9.7 0.0
00:55 1.7 88.0 1016.7 0.0 S 3.2 0.0
01:00 1.7 88.0 1016.8 0.0 S 3.2 0.0
01:05 1.7 88.0 1016.7 0.0 S 0.0 0.0
01:10 1.6 88.0 1016.6 0.0 S 1.6 0.0
01:15 1.6 88.0 1016.7 0.0 S 0.0 0.0
01:20 1.6 88.0 1016.7 0.0 S 1.6 0.0
01:25 1.6 88.0 1016.4 6.4 SSE 9.7 0.0
01:30 1.7 88.0 1016.5 0.0 S 11.3 0.0
01:35 1.6 88.0 1016.5 0.0 SSE 11.3 0.0
01:40 1.6 88.0 1016.6 0.0 SSE 1.6 0.0
01:45 1.7 88.0 1016.6 0.0 SSE 1.6 0.0
01:50 1.7 88.0 1016.6 0.0 SSE 0.0 0.0
01:55 1.8 88.0 1016.6 0.0 SSE 0.0 0.0
02:00 1.8 88.0 1016.5 0.0 SSE 0.0 0.0
02:05 1.9 88.0 1016.4 0.0 SSE 0.0 0.0
02:10 1.9 88.0 1016.5 0.0 SSE 0.0 0.0
02:15 1.9 88.0 1016.6 0.0 SSE 0.0 0.0
02:20 2.0 88.0 1016.5 0.0 SSE 0.0 0.0
02:25 2.1 88.0 1016.4 0.0 SSE 0.0 0.0
02:30 2.2 88.0 1016.4 0.0 SSE 0.0 0.0
02:35 2.2 88.0 1016.4 0.0 SSE 0.0 0.0
02:40 2.2 88.0 1016.4 0.0 SSE 0.0 0.0
02:45 2.2 88.0 1016.3 0.0 SSE 0.0 0.0
02:50 2.2 88.0 1016.3 0.0 SSE 0.0 0.0
02:55 2.3 88.0 1016.3 0.0 SSE 0.0 0.0
03:00 2.3 88.0 1016.3 0.0 SSE 0.0 0.0
03:05 2.3 88.0 1016.2 0.0 SSE 0.0 0.0
03:10 2.3 88.0 1016.1 0.0 SSE 0.0 0.0
03:15 2.2 88.0 1016.1 0.0 SSE 0.0 0.0
03:20 2.2 88.0 1016.1 0.0 SSE 0.0 0.0
03:25 2.2 88.0 1016.1 0.0 SSE 3.2 0.0
03:30 2.1 88.0 1016.1 0.0 S 3.2 0.0
03:35 2.1 88.0 1016.1 0.0 S 3.2 0.0
03:40 2.1 88.0 1016.1 0.0 S 1.6 0.0
03:45 2.1 88.0 1016.1 0.0 S 0.0 0.0
03:50 2.1 88.0 1016.1 0.0 S 0.0 0.0
03:55 2.0 88.0 1016.1 0.0 S 0.0 0.0
04:00 2.0 88.0 1016.1 0.0 S 0.0 0.0
04:05 2.0 88.0 1016.0 0.0 S 0.0 0.0
04:10 2.0 88.0 1016.0 0.0 S 0.0 0.0
04:15 1.9 88.0 1016.0 0.0 S 0.0 0.0
04:20 1.9 88.0 1016.0 0.0 S 0.0 0.0
04:25 1.8 88.0 1016.0 0.0 S 0.0 0.0
04:30 1.7 88.0 1016.0 0.0 S 0.0 0.0
04:35 1.6 88.0 1016.0 0.0 S 0.0 0.0
04:40 1.5 88.0 1016.0 0.0 S 0.0 0.0
04:45 1.4 88.0 1016.0 0.0 S 0.0 0.0
04:50 1.3 88.0 1015.9 0.0 S 0.0 0.0
04:55 1.1 88.0 1015.9 0.0 S 0.0 0.0
05:00 1.0 88.0 1015.9 0.0 S 0.0 0.0
05:05 0.9 88.0 1015.9 0.0 S 0.0 0.0
05:10 0.7 88.0 1015.9 0.0 S 0.0 0.0
05:15 0.6 88.0 1016.0 0.0 S 0.0 0.0
05:20 0.5 88.0 1016.0 0.0 S 0.0 0.0
05:25 0.4 88.0 1016.0 0.0 S 0.0 0.0
05:30 0.3 88.0 1015.8 0.0 S 0.0 0.0
05:35 0.2 88.0 1015.9 0.0 S 0.0 0.0
05:40 0.2 88.0 1016.0 0.0 S 0.0 0.0
05:45 0.2 88.0 1016.1 0.0 S 0.0 0.0
05:50 0.1 88.0 1016.1 0.0 S 0.0 0.0
05:55 0.1 88.0 1016.2 0.0 S 0.0 0.0
06:00 0.1 88.0 1016.2 0.0 S 0.0 0.0
Máxima 3.3 88.0 1016.9 6.4 SSE 11.3 0.0
Mínima 0.1 87.0 1015.8
Total 0.0